"read_dt","SO2 (ppb)","flags","PMT voltage (V)","lamp voltage (V)","lamp intensity (Hz)","internal temp (C)","react chamber temp (C)","sample flow (l/min)","pres (mmHg)","SO2 bkg (ppb)","SO2 coefficient"
2015-02-15 00:00:00,2243E-3,5C000000,-0724,0838,12022,027.1,045.4,0.450,731.0,01.19,0.508
2015-02-15 00:01:00,2212E-3,5C000000,-0724,0838,12109,027.1,045.4,0.450,730.7,01.19,0.508
2015-02-15 00:02:00,2184E-3,5C000000,-0724,0837,12117,027.1,045.4,0.450,730.6,01.19,0.508
2015-02-15 00:03:00,2342E-3,5C000000,-0724,0837,12246,027.1,045.4,0.450,730.3,01.19,0.508
2015-02-15 00:04:00,2305E-3,5C000000,-0724,0837,12111,027.1,045.4,0.450,730.7,01.19,0.508
2015-02-15 00:05:00,2234E-3,5C000000,-0724,0837,12120,027.1,045.4,0.450,730.8,01.19,0.508
2015-02-15 00:06:00,2126E-3,5C000000,-0724,0837,12075,027.1,045.4,0.450,730.7,01.19,0.508
2015-02-15 00:07:00,2192E-3,5C000000,-0724,0838,12083,027.1,045.4,0.450,730.5,01.19,0.508
2015-02-15 00:08:00,2267E-3,5C000000,-0724,0838,12182,027.1,045.4,0.450,730.3,01.19,0.508
2015-02-15 00:09:00,2341E-3,5C000000,-0724,0838,12046,027.1,045.4,0.450,730.4,01.19,0.508
2015-02-15 00:10:00,2308E-3,5C000000,-0724,0837,12147,027.1,045.4,0.450,730.5,01.19,0.508
2015-02-15 00:11:00,2208E-3,5C000000,-0724,0838,12065,027.1,045.4,0.450,730.4,01.19,0.508
2015-02-15 00:12:00,2326E-3,5C000000,-0724,0838,12086,027.1,045.4,0.450,730.7,01.19,0.508
2015-02-15 00:13:00,2176E-3,5C000000,-0724,0838,12121,027.1,045.4,0.449,730.4,01.19,0.508
2015-02-15 00:14:00,2255E-3,5C000000,-0724,0838,12167,027.1,045.4,0.450,730.7,01.19,0.508
2015-02-15 00:15:00,2223E-3,5C000000,-0724,0838,12189,027.1,045.4,0.450,730.8,01.19,0.508
2015-02-15 00:16:00,2233E-3,5C000000,-0724,0838,12059,027.1,045.4,0.450,730.8,01.19,0.508
2015-02-15 00:17:00,2262E-3,5C000000,-0724,0838,12081,027.2,045.4,0.450,731.0,01.19,0.508
2015-02-15 00:18:00,2384E-3,5C000000,-0724,0838,12137,027.1,045.4,0.450,730.8,01.19,0.508
2015-02-15 00:19:00,2266E-3,5C000000,-0724,0838,11969,027.1,045.4,0.450,730.8,01.19,0.508
2015-02-15 00:20:00,2127E-3,5C000000,-0724,0838,12171,027.2,045.4,0.450,730.6,01.19,0.508
2015-02-15 00:21:00,2272E-3,5C000000,-0724,0838,12130,027.2,045.4,0.450,730.8,01.19,0.508
2015-02-15 00:22:00,2374E-3,5C000000,-0724,0837,12075,027.2,045.4,0.450,731.0,01.19,0.508
2015-02-15 00:23:00,2409E-3,5C000000,-0724,0838,12014,027.2,045.4,0.450,730.9,01.19,0.508
2015-02-15 00:24:00,2323E-3,5C000000,-0724,0838,12081,027.2,045.4,0.450,731.3,01.19,0.508
2015-02-15 00:25:00,2301E-3,5C000000,-0724,0838,12124,027.2,045.4,0.450,731.1,01.19,0.508
2015-02-15 00:26:00,2280E-3,5C000000,-0724,0838,12123,027.2,045.4,0.450,731.4,01.19,0.508
2015-02-15 00:27:00,2301E-3,5C000000,-0724,0838,12173,027.3,045.4,0.450,731.3,01.19,0.508
2015-02-15 00:28:00,2163E-3,5C000000,-0724,0838,12102,027.3,045.4,0.450,731.1,01.19,0.508
2015-02-15 00:29:00,2272E-3,5C000000,-0724,0838,12111,027.3,045.4,0.450,731.4,01.19,0.508
2015-02-15 00:30:00,2215E-3,5C000000,-0724,0838,12063,027.2,045.4,0.450,731.3,01.19,0.508
2015-02-15 00:31:00,2254E-3,5C000000,-0724,0838,12087,027.3,045.4,0.450,731.2,01.19,0.508
2015-02-15 00:32:00,2175E-3,5C000000,-0724,0838,12277,027.2,045.4,0.450,731.4,01.19,0.508
2015-02-15 00:33:00,2198E-3,5C000000,-0724,0838,12135,027.3,045.4,0.450,731.3,01.19,0.508
2015-02-15 00:34:00,2297E-3,5C000000,-0724,0838,12128,027.3,045.4,0.450,731.6,01.19,0.508
2015-02-15 00:35:00,2235E-3,5C000000,-0724,0838,12003,027.3,045.4,0.450,731.4,01.19,0.508
2015-02-15 00:36:00,2227E-3,5C000000,-0724,0838,12030,027.3,045.4,0.450,731.6,01.19,0.508
2015-02-15 00:37:00,2265E-3,5C000000,-0724,0838,12072,027.3,045.4,0.450,731.6,01.19,0.508
2015-02-15 00:38:00,2168E-3,5C000000,-0724,0838,12071,027.4,045.4,0.450,731.5,01.19,0.508
2015-02-15 00:39:00,2286E-3,5C000000,-0724,0838,12036,027.4,045.4,0.450,731.8,01.19,0.508
2015-02-15 00:40:00,2163E-3,5C000000,-0724,0837,12204,027.4,045.4,0.450,731.7,01.19,0.508
2015-02-15 00:41:00,2230E-3,5C000000,-0724,0838,11889,027.4,045.4,0.450,731.6,01.19,0.508
2015-02-15 00:42:00,2197E-3,5C000000,-0724,0839,12090,027.4,045.4,0.450,731.8,01.19,0.508
2015-02-15 00:43:00,2279E-3,5C000000,-0724,0838,12093,027.4,045.4,0.450,731.7,01.19,0.508
2015-02-15 00:44:00,2313E-3,5C000000,-0724,0838,12161,027.4,045.4,0.450,731.7,01.19,0.508
2015-02-15 00:45:00,2254E-3,5C000000,-0724,0839,12121,027.4,045.4,0.450,731.6,01.19,0.508
2015-02-15 00:46:00,2213E-3,5C000000,-0724,0837,12092,027.4,045.4,0.450,731.6,01.19,0.508
2015-02-15 00:47:00,2247E-3,5C000000,-0724,0838,12111,027.4,045.4,0.450,731.7,01.19,0.508
2015-02-15 00:48:00,2324E-3,5C000000,-0724,0838,12133,027.4,045.4,0.450,731.8,01.19,0.508
2015-02-15 00:49:00,2235E-3,5C000000,-0724,0839,12231,027.4,045.4,0.450,731.8,01.19,0.508
2015-02-15 00:50:00,2231E-3,5C000000,-0724,0837,12064,027.4,045.4,0.450,731.7,01.19,0.508
2015-02-15 00:51:00,2330E-3,5C000000,-0724,0838,12069,027.4,045.4,0.450,731.9,01.19,0.508
2015-02-15 00:52:00,2264E-3,5C000000,-0724,0838,11838,027.4,045.4,0.450,732.0,01.19,0.508
2015-02-15 00:53:00,2459E-3,5C000000,-0724,0838,12124,027.4,045.4,0.450,731.9,01.19,0.508
2015-02-15 00:54:00,2207E-3,5C000000,-0724,0837,12169,027.4,045.4,0.450,732.0,01.19,0.508
2015-02-15 00:55:00,2305E-3,5C000000,-0724,0837,12006,027.5,045.4,0.450,731.9,01.19,0.508
2015-02-15 00:56:00,2187E-3,5C000000,-0724,0837,11977,027.4,045.5,0.450,732.0,01.19,0.508
2015-02-15 00:57:00,2340E-3,5C000000,-0724,0838,12103,027.4,045.4,0.450,732.0,01.19,0.508
2015-02-15 00:58:00,2264E-3,5C000000,-0724,0838,12050,027.4,045.4,0.450,732.0,01.19,0.508
2015-02-15 00:59:00,2187E-3,5C000000,-0724,0838,12108,027.4,045.4,0.450,732.2,01.19,0.508
2015-02-15 01:00:00,2411E-3,5C000000,-0724,0839,12292,027.4,045.4,0.450,732.1,01.19,0.508
2015-02-15 01:01:00,2390E-3,5C000000,-0724,0838,12028,027.4,045.4,0.450,732.2,01.19,0.508
2015-02-15 01:02:00,2358E-3,5C000000,-0724,0839,11992,027.4,045.4,0.450,732.0,01.19,0.508
2015-02-15 01:03:00,2383E-3,5C000000,-0724,0838,12206,027.5,045.4,0.450,732.0,01.19,0.508
2015-02-15 01:04:00,2165E-3,5C000000,-0724,0839,12266,027.4,045.4,0.450,732.2,01.19,0.508
2015-02-15 01:05:00,2314E-3,5C000000,-0724,0838,12162,027.4,045.4,0.450,732.3,01.19,0.508
2015-02-15 01:06:00,2283E-3,5C000000,-0724,0838,12107,027.5,045.4,0.450,732.5,01.19,0.508
2015-02-15 01:07:00,2203E-3,5C000000,-0724,0838,12010,027.4,045.4,0.450,732.2,01.19,0.508
2015-02-15 01:08:00,2365E-3,5C000000,-0724,0838,11983,027.4,045.4,0.450,732.2,01.19,0.508
2015-02-15 01:09:00,2264E-3,5C000000,-0724,0837,12055,027.4,045.4,0.450,732.2,01.19,0.508
2015-02-15 01:10:00,2220E-3,5C000000,-0724,0838,12155,027.4,045.4,0.450,732.4,01.19,0.508
2015-02-15 01:11:00,2180E-3,5C000000,-0724,0837,12218,027.4,045.4,0.450,732.1,01.19,0.508
2015-02-15 01:12:00,2276E-3,5C000000,-0724,0838,11894,027.5,045.4,0.450,732.4,01.19,0.508
2015-02-15 01:13:00,2280E-3,5C000000,-0724,0838,12176,027.5,045.4,0.450,732.4,01.19,0.508
2015-02-15 01:14:00,2208E-3,5C000000,-0724,0838,12199,027.4,045.4,0.450,732.4,01.19,0.508
2015-02-15 01:15:00,2310E-3,5C000000,-0724,0837,12042,027.5,045.4,0.450,732.2,01.19,0.508
2015-02-15 01:16:00,2314E-3,5C000000,-0724,0838,12101,027.4,045.4,0.450,732.2,01.19,0.508
2015-02-15 01:17:00,2204E-3,5C000000,-0724,0838,12191,027.5,045.4,0.450,732.0,01.19,0.508
2015-02-15 01:18:00,2326E-3,5C000000,-0724,0838,12076,027.5,045.4,0.450,732.4,01.19,0.508
2015-02-15 01:19:00,2259E-3,5C000000,-0724,0838,12204,027.4,045.4,0.450,732.3,01.19,0.508
2015-02-15 01:20:00,2296E-3,5C000000,-0724,0838,12174,027.4,045.4,0.450,732.2,01.19,0.508
2015-02-15 01:21:00,2181E-3,5C000000,-0724,0838,12130,027.4,045.4,0.450,732.4,01.19,0.508
2015-02-15 01:22:00,2355E-3,5C000000,-0724,0837,12067,027.4,045.4,0.450,732.2,01.19,0.508
2015-02-15 01:23:00,2314E-3,5C000000,-0724,0838,12161,027.5,045.4,0.450,732.5,01.19,0.508
2015-02-15 01:24:00,2255E-3,5C000000,-0724,0838,12029,027.4,045.4,0.451,732.3,01.19,0.508
2015-02-15 01:25:00,2232E-3,5C000000,-0724,0837,12181,027.5,045.4,0.450,732.3,01.19,0.508
2015-02-15 01:26:00,2215E-3,5C000000,-0724,0838,12141,027.4,045.4,0.451,732.6,01.19,0.508
2015-02-15 01:27:00,2268E-3,5C000000,-0724,0838,12173,027.4,045.4,0.450,732.5,01.19,0.508
2015-02-15 01:28:00,2194E-3,5C000000,-0724,0838,12143,027.4,045.4,0.450,732.6,01.19,0.508
2015-02-15 01:29:00,2249E-3,5C000000,-0724,0837,12214,027.4,045.4,0.450,732.6,01.19,0.508
2015-02-15 01:30:00,2360E-3,5C000000,-0724,0838,12059,027.4,045.4,0.450,732.7,01.19,0.508
2015-02-15 01:31:00,2276E-3,5C000000,-0724,0838,12175,027.4,045.4,0.450,732.7,01.19,0.508
2015-02-15 01:32:00,2205E-3,5C000000,-0724,0838,12166,027.4,045.4,0.450,732.3,01.19,0.508
2015-02-15 01:33:00,2373E-3,5C000000,-0724,0838,12124,027.4,045.4,0.451,732.6,01.19,0.508
2015-02-15 01:34:00,2178E-3,5C000000,-0724,0837,11997,027.4,045.4,0.450,732.3,01.19,0.508
2015-02-15 01:35:00,2304E-3,5C000000,-0724,0837,12172,027.4,045.4,0.451,732.7,01.19,0.508
2015-02-15 01:36:00,2218E-3,5C000000,-0724,0838,12172,027.4,045.4,0.450,732.5,01.19,0.508
2015-02-15 01:37:00,2273E-3,5C000000,-0724,0838,12122,027.4,045.4,0.451,732.3,01.19,0.508
2015-02-15 01:38:00,2268E-3,5C000000,-0724,0838,12098,027.4,045.4,0.450,732.7,01.19,0.508
2015-02-15 01:39:00,2371E-3,5C000000,-0724,0839,12111,027.4,045.4,0.451,732.8,01.19,0.508
2015-02-15 01:40:00,2248E-3,5C000000,-0724,0837,12074,027.4,045.4,0.450,732.9,01.19,0.508
2015-02-15 01:41:00,2208E-3,5C000000,-0724,0838,12133,027.4,045.4,0.451,732.4,01.19,0.508
2015-02-15 01:42:00,2419E-3,5C000000,-0724,0837,12136,027.4,045.4,0.450,733.2,01.19,0.508
2015-02-15 01:43:00,2228E-3,5C000000,-0724,0838,12170,027.4,045.4,0.451,733.2,01.19,0.508
2015-02-15 01:44:00,2280E-3,5C000000,-0724,0837,12181,027.4,045.4,0.450,733.0,01.19,0.508
2015-02-15 01:45:00,2270E-3,5C000000,-0724,0837,12044,027.4,045.4,0.451,733.2,01.19,0.508
2015-02-15 01:46:00,2170E-3,5C000000,-0724,0838,12070,027.4,045.4,0.450,733.2,01.19,0.508
2015-02-15 01:47:00,2184E-3,5C000000,-0724,0838,12145,027.4,045.4,0.451,733.3,01.19,0.508
2015-02-15 01:48:00,2277E-3,5C000000,-0724,0837,12228,027.4,045.4,0.450,733.4,01.19,0.508
2015-02-15 01:49:00,2220E-3,5C000000,-0724,0838,12184,027.4,045.4,0.451,733.3,01.19,0.508
2015-02-15 01:50:00,2367E-3,5C000000,-0724,0838,12142,027.4,045.4,0.450,733.4,01.19,0.508
2015-02-15 01:51:00,2346E-3,5C000000,-0724,0838,12046,027.4,045.4,0.451,733.2,01.19,0.508
2015-02-15 01:52:00,2312E-3,5C000000,-0724,0839,12087,027.4,045.4,0.450,733.5,01.19,0.508
2015-02-15 01:53:00,2206E-3,5C000000,-0724,0838,12212,027.3,045.4,0.451,733.6,01.19,0.508
2015-02-15 01:54:00,2269E-3,5C000000,-0724,0838,12288,027.4,045.4,0.450,733.7,01.19,0.508
2015-02-15 01:55:00,2163E-3,5C000000,-0724,0837,12085,027.4,045.4,0.451,733.4,01.19,0.508
2015-02-15 01:56:00,2286E-3,5C000000,-0724,0837,12180,027.4,045.4,0.451,733.5,01.19,0.508
2015-02-15 01:57:00,2176E-3,5C000000,-0724,0838,12246,027.4,045.4,0.451,733.9,01.19,0.508
2015-02-15 01:58:00,2201E-3,5C000000,-0724,0838,12170,027.4,045.4,0.451,733.9,01.19,0.508
2015-02-15 01:59:00,2230E-3,5C000000,-0724,0838,12058,027.4,045.4,0.451,733.9,01.19,0.508
2015-02-15 02:00:00,2455E-3,5C000000,-0724,0837,12189,027.4,045.4,0.451,734.0,01.19,0.508
2015-02-15 02:01:00,2123E-3,5C000000,-0724,0838,12120,027.4,045.4,0.450,733.9,01.19,0.508
2015-02-15 02:02:00,2352E-3,5C000000,-0724,0837,12089,027.4,045.4,0.451,734.0,01.19,0.508
2015-02-15 02:03:00,2129E-3,5C000000,-0724,0838,12240,027.5,045.4,0.450,733.9,01.19,0.508
2015-02-15 02:04:00,2350E-3,5C000000,-0724,0837,12095,027.4,045.4,0.451,734.1,01.19,0.508
2015-02-15 02:05:00,2202E-3,5C000000,-0724,0837,12053,027.4,045.4,0.451,734.0,01.19,0.508
2015-02-15 02:06:00,2199E-3,5C000000,-0724,0838,12125,027.4,045.4,0.451,733.8,01.19,0.508
2015-02-15 02:07:00,2357E-3,5C000000,-0724,0838,11914,027.4,045.4,0.450,734.0,01.19,0.508
2015-02-15 02:08:00,2233E-3,5C000000,-0724,0837,12185,027.5,045.4,0.451,734.0,01.19,0.508
2015-02-15 02:09:00,2296E-3,5C000000,-0724,0838,11952,027.4,045.4,0.451,734.0,01.19,0.508
2015-02-15 02:10:00,2346E-3,5C000000,-0724,0838,12023,027.4,045.4,0.451,734.1,01.19,0.508
2015-02-15 02:11:00,2244E-3,5C000000,-0724,0838,12001,027.4,045.4,0.451,734.1,01.19,0.508
2015-02-15 02:12:00,2294E-3,5C000000,-0724,0837,12096,027.4,045.5,0.451,734.2,01.18,0.508
2015-02-15 02:13:00,2258E-3,5C000000,-0724,0837,12081,027.5,045.4,0.451,734.0,01.19,0.508
2015-02-15 02:14:00,2231E-3,5C000000,-0724,0839,12006,027.5,045.4,0.451,734.2,01.18,0.508
2015-02-15 02:15:00,2424E-3,5C000000,-0724,0838,12068,027.5,045.4,0.451,734.4,01.18,0.508
2015-02-15 02:16:00,2379E-3,5C000000,-0724,0837,12099,027.5,045.4,0.450,734.4,01.18,0.508
2015-02-15 02:17:00,2352E-3,5C000000,-0724,0838,12215,027.4,045.4,0.451,734.3,01.18,0.508
2015-02-15 02:18:00,2279E-3,5C000000,-0724,0838,12089,027.4,045.4,0.451,734.5,01.18,0.508
2015-02-15 02:19:00,2284E-3,5C000000,-0724,0838,11992,027.4,045.4,0.451,734.5,01.18,0.508
2015-02-15 02:20:00,2293E-3,5C000000,-0724,0838,12102,027.4,045.4,0.451,734.6,01.18,0.508
2015-02-15 02:21:00,2306E-3,5C000000,-0724,0837,12247,027.4,045.4,0.450,734.4,01.18,0.508
2015-02-15 02:22:00,2412E-3,5C000000,-0724,0838,12175,027.4,045.4,0.451,734.5,01.18,0.508
2015-02-15 02:23:00,2236E-3,5C000000,-0724,0837,12258,027.3,045.4,0.451,734.5,01.18,0.508
2015-02-15 02:24:00,2196E-3,5C000000,-0724,0838,12216,027.3,045.4,0.451,734.8,01.18,0.508
2015-02-15 02:25:00,2205E-3,5C000000,-0724,0838,12160,027.3,045.4,0.451,734.8,01.18,0.508
2015-02-15 02:26:00,2177E-3,5C000000,-0724,0837,12090,027.4,045.4,0.451,734.8,01.18,0.508
2015-02-15 02:27:00,2172E-3,5C000000,-0724,0837,12098,027.4,045.4,0.451,734.8,01.18,0.508
2015-02-15 02:28:00,2258E-3,5C000000,-0724,0839,11991,027.4,045.4,0.451,734.7,01.18,0.508
2015-02-15 02:29:00,2309E-3,5C000000,-0724,0838,12179,027.4,045.4,0.451,734.7,01.18,0.508
2015-02-15 02:30:00,2194E-3,5C000000,-0724,0837,12018,027.4,045.4,0.451,734.7,01.18,0.508
2015-02-15 02:31:00,2273E-3,5C000000,-0724,0838,12159,027.4,045.4,0.451,734.9,01.18,0.508
2015-02-15 02:32:00,2329E-3,5C000000,-0724,0837,12052,027.3,045.4,0.451,734.9,01.18,0.508
2015-02-15 02:33:00,2206E-3,5C000000,-0724,0838,12172,027.3,045.4,0.451,734.9,01.18,0.508
2015-02-15 02:34:00,2326E-3,5C000000,-0724,0838,12289,027.4,045.4,0.451,734.9,01.18,0.508
2015-02-15 02:35:00,2350E-3,5C000000,-0724,0837,11984,027.4,045.4,0.451,734.9,01.18,0.508
2015-02-15 02:36:00,2319E-3,5C000000,-0724,0837,12037,027.4,045.4,0.451,734.9,01.18,0.508
2015-02-15 02:37:00,2190E-3,5C000000,-0724,0838,11948,027.4,045.4,0.451,735.0,01.18,0.508
2015-02-15 02:38:00,2333E-3,5C000000,-0724,0837,12103,027.3,045.4,0.451,734.9,01.18,0.508
2015-02-15 02:39:00,2406E-3,5C000000,-0724,0838,12049,027.3,045.4,0.451,735.0,01.18,0.508
2015-02-15 02:40:00,2211E-3,5C000000,-0724,0837,12069,027.3,045.4,0.451,735.0,01.18,0.508
2015-02-15 02:41:00,2118E-3,5C000000,-0724,0838,12100,027.3,045.4,0.451,735.0,01.18,0.508
2015-02-15 02:42:00,2302E-3,5C000000,-0724,0838,12178,027.4,045.4,0.451,735.0,01.18,0.508
2015-02-15 02:43:00,2305E-3,5C000000,-0724,0838,12188,027.4,045.4,0.451,735.0,01.18,0.508
2015-02-15 02:44:00,2236E-3,5C000000,-0724,0838,11917,027.4,045.4,0.451,735.0,01.18,0.508
2015-02-15 02:45:00,2270E-3,5C000000,-0724,0838,12070,027.3,045.4,0.451,735.0,01.18,0.508
2015-02-15 02:46:00,2359E-3,5C000000,-0724,0837,12132,027.3,045.4,0.451,734.8,01.18,0.508
2015-02-15 02:47:00,2267E-3,5C000000,-0724,0837,12023,027.4,045.4,0.451,734.9,01.18,0.508
2015-02-15 02:48:00,2268E-3,5C000000,-0724,0837,12028,027.3,045.4,0.451,734.8,01.18,0.508
2015-02-15 02:49:00,2339E-3,5C000000,-0724,0838,12245,027.3,045.4,0.451,734.8,01.18,0.508
2015-02-15 02:50:00,2259E-3,5C000000,-0724,0837,11999,027.3,045.4,0.451,734.7,01.18,0.508
2015-02-15 02:51:00,2344E-3,5C000000,-0724,0837,12178,027.3,045.4,0.451,734.6,01.18,0.508
2015-02-15 02:52:00,2404E-3,5C000000,-0724,0838,12036,027.3,045.4,0.451,734.6,01.18,0.508
2015-02-15 02:53:00,2257E-3,5C000000,-0724,0837,11996,027.3,045.4,0.451,734.6,01.18,0.508
2015-02-15 02:54:00,2270E-3,5C000000,-0724,0837,12160,027.3,045.4,0.451,734.6,01.18,0.508
2015-02-15 02:55:00,2253E-3,5C000000,-0724,0837,11983,027.3,045.4,0.451,734.5,01.18,0.508
2015-02-15 02:56:00,2475E-3,5C000000,-0724,0837,12002,027.3,045.4,0.451,734.7,01.18,0.508
2015-02-15 02:57:00,2310E-3,5C000000,-0724,0837,12137,027.3,045.4,0.451,734.5,01.18,0.508
2015-02-15 02:58:00,2259E-3,5C000000,-0724,0838,12082,027.2,045.4,0.451,734.5,01.18,0.508
2015-02-15 02:59:00,2314E-3,5C000000,-0724,0837,12004,027.2,045.4,0.451,734.6,01.18,0.508
2015-02-15 03:00:00,2328E-3,5C000000,-0724,0838,12142,027.2,045.4,0.451,734.5,01.18,0.508
2015-02-15 03:01:00,2271E-3,5C000000,-0724,0837,12216,027.2,045.4,0.451,734.5,01.18,0.508
2015-02-15 03:02:00,2311E-3,5C000000,-0724,0837,12008,027.3,045.4,0.451,734.5,01.18,0.508
2015-02-15 03:03:00,2304E-3,5C000000,-0724,0837,12184,027.3,045.4,0.451,734.7,01.18,0.508
2015-02-15 03:04:00,2366E-3,5C000000,-0724,0838,11826,027.3,045.4,0.451,734.6,01.18,0.508
2015-02-15 03:05:00,2251E-3,5C000000,-0724,0837,12080,027.2,045.4,0.451,734.6,01.18,0.508
2015-02-15 03:06:00,2357E-3,5C000000,-0724,0838,12278,027.2,045.4,0.451,734.6,01.18,0.508
2015-02-15 03:07:00,2410E-3,5C000000,-0724,0838,12026,027.2,045.4,0.451,734.8,01.18,0.508
2015-02-15 03:08:00,2221E-3,5C000000,-0724,0838,11979,027.2,045.4,0.451,734.7,01.18,0.508
2015-02-15 03:09:00,2229E-3,5C000000,-0724,0838,12156,027.3,045.4,0.451,734.7,01.18,0.508
2015-02-15 03:10:00,2377E-3,5C000000,-0724,0837,11893,027.3,045.4,0.451,734.6,01.18,0.508
2015-02-15 03:11:00,2438E-3,5C000000,-0724,0838,12089,027.3,045.4,0.451,734.6,01.18,0.508
2015-02-15 03:12:00,2186E-3,5C000000,-0724,0838,12297,027.2,045.4,0.451,734.8,01.18,0.508
2015-02-15 03:13:00,2283E-3,5C000000,-0724,0837,12140,027.2,045.4,0.451,734.8,01.18,0.508
2015-02-15 03:14:00,2308E-3,5C000000,-0724,0838,12175,027.2,045.4,0.451,735.0,01.18,0.508
2015-02-15 03:15:00,2242E-3,5C000000,-0724,0838,12088,027.2,045.4,0.451,735.0,01.18,0.508
2015-02-15 03:16:00,2274E-3,5C000000,-0724,0838,12094,027.2,045.4,0.451,735.0,01.18,0.508
2015-02-15 03:17:00,2274E-3,5C000000,-0724,0837,12223,027.2,045.4,0.451,734.9,01.18,0.508
2015-02-15 03:18:00,2251E-3,5C000000,-0724,0837,12084,027.2,045.4,0.451,735.0,01.18,0.508
2015-02-15 03:19:00,2186E-3,5C000000,-0724,0837,12215,027.2,045.4,0.451,735.0,01.18,0.508
2015-02-15 03:20:00,2301E-3,5C000000,-0724,0837,12029,027.2,045.4,0.451,735.1,01.18,0.508
2015-02-15 03:21:00,2336E-3,5C000000,-0724,0838,12137,027.2,045.4,0.451,735.0,01.18,0.508
2015-02-15 03:22:00,2238E-3,5C000000,-0724,0838,12144,027.2,045.4,0.451,735.0,01.18,0.508
2015-02-15 03:23:00,2198E-3,5C000000,-0724,0837,12061,027.2,045.4,0.451,735.0,01.18,0.508
2015-02-15 03:24:00,2264E-3,5C000000,-0724,0838,12086,027.2,045.4,0.451,735.0,01.18,0.508
2015-02-15 03:25:00,2230E-3,5C000000,-0724,0837,12218,027.2,045.4,0.451,735.0,01.18,0.508
2015-02-15 03:26:00,2297E-3,5C000000,-0724,0837,12067,027.2,045.4,0.451,734.9,01.18,0.508
2015-02-15 03:27:00,2240E-3,5C000000,-0724,0837,12098,027.2,045.4,0.451,734.9,01.18,0.508
2015-02-15 03:28:00,2188E-3,5C000000,-0724,0837,12078,027.2,045.4,0.451,734.9,01.18,0.508
2015-02-15 03:29:00,2292E-3,5C000000,-0724,0838,12055,027.2,045.4,0.451,734.7,01.18,0.508
2015-02-15 03:30:00,2253E-3,5C000000,-0724,0838,12163,027.2,045.4,0.451,734.8,01.18,0.508
2015-02-15 03:31:00,2418E-3,5C000000,-0724,0837,12142,027.2,045.4,0.451,734.7,01.18,0.508
2015-02-15 03:32:00,2255E-3,5C000000,-0724,0837,12255,027.2,045.4,0.451,734.9,01.18,0.508
2015-02-15 03:33:00,2456E-3,5C000000,-0724,0838,12061,027.2,045.4,0.451,734.8,01.18,0.508
2015-02-15 03:34:00,2410E-3,5C000000,-0724,0837,12191,027.2,045.4,0.451,734.8,01.18,0.508
2015-02-15 03:35:00,2357E-3,5C000000,-0724,0837,12010,027.2,045.4,0.451,734.8,01.18,0.508
2015-02-15 03:36:00,2269E-3,5C000000,-0724,0836,12095,027.2,045.4,0.451,735.0,01.18,0.508
2015-02-15 03:37:00,2174E-3,5C000000,-0724,0837,12053,027.2,045.4,0.451,734.8,01.18,0.508
2015-02-15 03:38:00,2248E-3,5C000000,-0724,0837,11972,027.2,045.4,0.451,734.8,01.18,0.508
2015-02-15 03:39:00,2380E-3,5C000000,-0724,0837,12175,027.2,045.4,0.451,735.0,01.18,0.508
2015-02-15 03:40:00,2254E-3,5C000000,-0724,0837,11988,027.2,045.4,0.451,734.8,01.18,0.508
2015-02-15 03:41:00,2234E-3,5C000000,-0724,0837,12160,027.2,045.4,0.451,735.1,01.18,0.508
2015-02-15 03:42:00,2192E-3,5C000000,-0724,0836,12100,027.2,045.4,0.451,734.9,01.18,0.508
2015-02-15 03:43:00,2229E-3,5C000000,-0724,0837,12057,027.2,045.4,0.451,734.9,01.18,0.508
2015-02-15 03:44:00,2207E-3,5C000000,-0724,0837,12213,027.2,045.4,0.451,734.9,01.18,0.508
2015-02-15 03:45:00,2411E-3,5C000000,-0724,0837,12251,027.2,045.4,0.451,734.9,01.18,0.508
2015-02-15 03:46:00,2176E-3,5C000000,-0724,0837,12106,027.2,045.4,0.451,734.9,01.18,0.508
2015-02-15 03:47:00,2304E-3,5C000000,-0724,0837,12075,027.2,045.4,0.451,735.0,01.18,0.508
2015-02-15 03:48:00,2228E-3,5C000000,-0724,0837,12242,027.2,045.4,0.451,735.1,01.18,0.508
2015-02-15 03:49:00,2403E-3,5C000000,-0724,0838,12200,027.2,045.4,0.451,735.0,01.18,0.508
2015-02-15 03:50:00,2332E-3,5C000000,-0724,0837,12083,027.2,045.4,0.451,735.1,01.18,0.508
2015-02-15 03:51:00,2278E-3,5C000000,-0724,0837,11984,027.2,045.4,0.451,734.9,01.18,0.508
2015-02-15 03:52:00,2346E-3,5C000000,-0724,0837,12077,027.2,045.4,0.451,734.9,01.18,0.508
2015-02-15 03:53:00,2242E-3,5C000000,-0724,0837,12239,027.2,045.4,0.451,735.2,01.18,0.508
2015-02-15 03:54:00,2323E-3,5C000000,-0724,0837,12064,027.2,045.4,0.451,735.2,01.18,0.508
2015-02-15 03:55:00,2250E-3,5C000000,-0724,0837,12222,027.2,045.4,0.451,735.2,01.18,0.508
2015-02-15 03:56:00,2193E-3,5C000000,-0724,0837,12144,027.2,045.4,0.451,735.1,01.18,0.508
2015-02-15 03:57:00,2306E-3,5C000000,-0724,0837,12141,027.2,045.4,0.451,735.3,01.18,0.508
2015-02-15 03:58:00,2163E-3,5C000000,-0724,0838,11986,027.2,045.4,0.451,735.2,01.18,0.508
2015-02-15 03:59:00,2262E-3,5C000000,-0724,0837,12081,027.2,045.4,0.451,735.3,01.18,0.508
2015-02-15 04:00:00,2146E-3,5C000000,-0724,0838,12236,027.2,045.4,0.451,735.4,01.18,0.508
2015-02-15 04:01:00,2194E-3,5C000000,-0724,0838,12153,027.2,045.4,0.452,735.3,01.18,0.508
2015-02-15 04:02:00,2278E-3,5C000000,-0724,0837,12165,027.2,045.4,0.451,735.4,01.18,0.508
2015-02-15 04:03:00,2338E-3,5C000000,-0724,0838,12248,027.2,045.4,0.451,735.4,01.18,0.508
2015-02-15 04:04:00,2345E-3,5C000000,-0724,0837,12013,027.2,045.4,0.451,735.4,01.18,0.508
2015-02-15 04:05:00,2279E-3,5C000000,-0724,0836,12202,027.2,045.4,0.451,735.2,01.18,0.508
2015-02-15 04:06:00,2171E-3,5C000000,-0724,0838,11985,027.2,045.4,0.451,735.3,01.18,0.508
2015-02-15 04:07:00,2158E-3,5C000000,-0724,0838,12176,027.2,045.4,0.451,735.3,01.18,0.508
2015-02-15 04:08:00,2283E-3,5C000000,-0724,0837,12098,027.2,045.4,0.451,735.3,01.18,0.508
2015-02-15 04:09:00,2216E-3,5C000000,-0724,0838,11968,027.2,045.4,0.451,735.4,01.18,0.508
2015-02-15 04:10:00,2292E-3,5C000000,-0724,0837,12198,027.2,045.4,0.451,735.3,01.18,0.508
2015-02-15 04:11:00,2322E-3,5C000000,-0724,0837,11990,027.2,045.4,0.451,735.3,01.18,0.508
2015-02-15 04:12:00,2252E-3,5C000000,-0724,0838,12243,027.2,045.4,0.451,735.5,01.18,0.508
2015-02-15 04:13:00,2230E-3,5C000000,-0724,0837,12025,027.2,045.4,0.452,735.4,01.18,0.508
2015-02-15 04:14:00,2266E-3,5C000000,-0724,0838,12323,027.2,045.4,0.451,735.4,01.18,0.508
2015-02-15 04:15:00,2278E-3,5C000000,-0724,0837,12127,027.2,045.4,0.451,735.4,01.18,0.508
2015-02-15 04:16:00,2300E-3,5C000000,-0724,0837,12110,027.2,045.4,0.451,735.5,01.18,0.508
2015-02-15 04:17:00,2235E-3,5C000000,-0724,0837,12238,027.2,045.4,0.451,735.5,01.18,0.508
2015-02-15 04:18:00,2427E-3,5C000000,-0724,0837,12155,027.2,045.4,0.452,735.6,01.18,0.508
2015-02-15 04:19:00,2277E-3,5C000000,-0724,0838,12149,027.2,045.4,0.451,735.6,01.18,0.508
2015-02-15 04:20:00,2192E-3,5C000000,-0724,0837,12096,027.2,045.4,0.451,735.6,01.18,0.508